AAL9827 KPBI-KMIA

Flight info

Callsign AAL9827
Flight time 0h 22m
Altitude 14000
Route SPNER VKZ
Aircraft B738/M-SDE2E3FGHIRWXY/LB1

Departure

Time 2026-04-20 01:40
Airport Palm Beach International Airport (KPBI)

Arrival

Time 2026-04-20 02:03
Airport Miami International Airport (KMIA)
Time Latitude Longitude Altitude Speed Heading
2026-04-20 01:05 26.68676 -80.09236 27 ft 0 kts 316°
2026-04-20 01:27 26.68674 -80.09233 27 ft 3 kts 316°
2026-04-20 01:27 26.68656 -80.09212 27 ft 4 kts 304°
2026-04-20 01:28 26.68644 -80.09186 26 ft 4 kts 279°
2026-04-20 01:28 26.68646 -80.09159 26 ft 4 kts 233°
2026-04-20 01:28 26.68652 -80.09151 26 ft 1 kts 227°
2026-04-20 01:33 26.68643 -80.09162 26 ft 6 kts 227°
2026-04-20 01:33 26.68612 -80.09199 25 ft 7 kts 227°
2026-04-20 01:33 26.68582 -80.09236 25 ft 7 kts 227°
2026-04-20 01:34 26.68552 -80.09273 26 ft 6 kts 227°
2026-04-20 01:34 26.68522 -80.09309 27 ft 6 kts 227°
2026-04-20 01:34 26.68492 -80.09344 27 ft 7 kts 227°
2026-04-20 01:34 26.68451 -80.09384 27 ft 10 kts 197°
2026-04-20 01:35 26.68380 -80.09408 26 ft 11 kts 227°
2026-04-20 01:35 26.68373 -80.09492 28 ft 11 kts 274°
2026-04-20 01:35 26.68377 -80.09575 31 ft 11 kts 273°
2026-04-20 01:35 26.68381 -80.09656 32 ft 10 kts 273°
2026-04-20 01:36 26.68385 -80.09734 32 ft 10 kts 273°
2026-04-20 01:36 26.68389 -80.09831 32 ft 16 kts 272°
2026-04-20 01:36 26.68394 -80.09959 32 ft 16 kts 272°
2026-04-20 01:36 26.68399 -80.10084 32 ft 16 kts 272°
2026-04-20 01:37 26.68405 -80.10205 31 ft 15 kts 273°
2026-04-20 01:37 26.68410 -80.10314 28 ft 13 kts 273°
2026-04-20 01:37 26.68414 -80.10410 26 ft 11 kts 272°
2026-04-20 01:37 26.68417 -80.10496 24 ft 11 kts 272°
2026-04-20 01:38 26.68421 -80.10581 23 ft 11 kts 272°
2026-04-20 01:38 26.68424 -80.10663 22 ft 10 kts 272°
2026-04-20 01:38 26.68427 -80.10742 21 ft 10 kts 272°
2026-04-20 01:38 26.68403 -80.10810 20 ft 10 kts 218°
2026-04-20 01:39 26.68340 -80.10812 20 ft 10 kts 147°
2026-04-20 01:39 26.68317 -80.10747 21 ft 9 kts 93°
2026-04-20 01:39 26.68313 -80.10675 23 ft 9 kts 92°
2026-04-20 01:39 26.68307 -80.10528 24 ft 41 kts 92°
2026-04-20 01:40 26.68284 -80.09974 32 ft 100 kts 92°
2026-04-20 01:40 26.68240 -80.09006 24 ft 148 kts 93°
2026-04-20 01:40 26.68175 -80.07717 74 ft 180 kts 93°
2026-04-20 01:40 26.68139 -80.06363 700 ft 174 kts 91°
2026-04-20 01:41 26.68158 -80.05011 1267 ft 173 kts 85°
2026-04-20 01:41 26.68303 -80.03609 1554 ft 197 kts 87°
2026-04-20 01:41 26.68082 -80.01988 1516 ft 227 kts 114°
2026-04-20 01:41 26.67185 -80.00600 2177 ft 215 kts 144°
2026-04-20 01:42 26.65884 -80.00005 3042 ft 199 kts 176°
2026-04-20 01:42 26.64454 -80.00188 3291 ft 222 kts 194°
2026-04-20 01:42 26.62896 -80.00642 3671 ft 234 kts 195°
2026-04-20 01:42 26.61321 -80.01106 4331 ft 236 kts 194°
2026-04-20 01:43 26.59704 -80.01546 4863 ft 243 kts 194°
2026-04-20 01:43 26.58067 -80.02024 5536 ft 243 kts 196°
2026-04-20 01:43 26.56470 -80.02568 6292 ft 238 kts 198°
2026-04-20 01:43 26.54882 -80.03123 6866 ft 242 kts 195°
2026-04-20 01:44 26.53200 -80.03496 7339 ft 251 kts 187°
2026-04-20 01:44 26.51466 -80.03659 7908 ft 255 kts 182°
2026-04-20 01:44 26.49706 -80.03653 8589 ft 254 kts 177°
2026-04-20 01:44 26.47942 -80.03425 9211 ft 257 kts 170°
2026-04-20 01:45 26.46175 -80.03020 9790 ft 261 kts 168°
2026-04-20 01:45 26.44388 -80.02565 10387 ft 265 kts 167°
2026-04-20 01:45 26.42563 -80.02145 10873 ft 274 kts 174°
2026-04-20 01:45 26.40601 -80.02139 11110 ft 292 kts 188°
2026-04-20 01:46 26.38576 -80.02677 11449 ft 304 kts 197°
2026-04-20 01:46 26.36547 -80.03359 12096 ft 305 kts 195°
2026-04-20 01:46 26.34477 -80.03914 12721 ft 308 kts 192°
2026-04-20 01:46 26.32340 -80.04380 13118 ft 319 kts 191°
2026-04-20 01:47 26.30105 -80.04821 13302 ft 336 kts 190°
2026-04-20 01:47 26.27770 -80.05288 13670 ft 344 kts 190°
2026-04-20 01:47 26.25421 -80.05741 13980 ft 352 kts 190°
2026-04-20 01:47 26.22952 -80.06198 13953 ft 367 kts 189°
2026-04-20 01:48 26.20383 -80.06667 13945 ft 380 kts 189°
2026-04-20 01:48 26.17749 -80.07155 13939 ft 385 kts 189°
2026-04-20 01:48 26.15147 -80.07616 13913 ft 371 kts 186°
2026-04-20 01:48 26.12645 -80.07547 13920 ft 349 kts 172°
2026-04-20 01:49 26.10382 -80.07017 13902 ft 325 kts 163°
2026-04-20 01:49 26.08282 -80.06195 13714 ft 312 kts 160°
2026-04-20 01:49 26.06252 -80.05357 13242 ft 308 kts 160°
2026-04-20 01:49 26.04284 -80.04542 12797 ft 304 kts 160°
2026-04-20 01:50 26.02312 -80.03725 12301 ft 302 kts 160°
2026-04-20 01:50 26.00356 -80.02921 11810 ft 299 kts 160°
2026-04-20 01:50 25.98406 -80.02125 11313 ft 297 kts 160°
2026-04-20 01:50 25.96478 -80.01340 10817 ft 294 kts 160°
2026-04-20 01:51 25.94573 -80.00517 10311 ft 294 kts 153°
2026-04-20 01:51 25.93090 -79.99021 9952 ft 286 kts 119°
2026-04-20 01:51 25.92587 -79.96968 9810 ft 272 kts 91°
2026-04-20 01:51 25.92607 -79.94919 9658 ft 259 kts 89°
2026-04-20 01:52 25.92644 -79.92953 9240 ft 259 kts 89°
2026-04-20 01:52 25.92689 -79.90951 8802 ft 259 kts 89°
2026-04-20 01:52 25.92736 -79.88947 8327 ft 261 kts 89°
2026-04-20 01:52 25.92782 -79.86924 7863 ft 261 kts 89°
2026-04-20 01:53 25.92829 -79.84924 7374 ft 258 kts 89°
2026-04-20 01:53 25.92860 -79.82947 6940 ft 250 kts 94°
2026-04-20 01:53 25.92300 -79.81204 6624 ft 238 kts 132°
2026-04-20 01:53 25.90927 -79.80273 6381 ft 233 kts 171°
2026-04-20 01:54 25.89373 -79.80519 6169 ft 229 kts 211°
2026-04-20 01:54 25.88273 -79.81761 5992 ft 228 kts 236°
2026-04-20 01:54 25.87375 -79.83226 5835 ft 231 kts 234°
2026-04-20 01:54 25.86463 -79.84670 5711 ft 234 kts 235°
2026-04-20 01:55 25.85546 -79.86159 5582 ft 231 kts 236°
2026-04-20 01:55 25.84647 -79.87626 5478 ft 228 kts 236°
2026-04-20 01:55 25.83764 -79.89068 5416 ft 224 kts 236°
2026-04-20 01:55 25.82882 -79.90519 5381 ft 228 kts 236°
2026-04-20 01:56 25.81989 -79.91986 5315 ft 231 kts 236°
2026-04-20 01:56 25.81398 -79.93607 5245 ft 224 kts 269°
2026-04-20 01:56 25.81421 -79.95299 5045 ft 217 kts 258°
2026-04-20 01:56 25.80696 -79.96670 4878 ft 206 kts 225°
2026-04-20 01:57 25.79876 -79.98015 4652 ft 218 kts 257°
2026-04-20 01:57 25.79919 -79.99656 4524 ft 216 kts 278°
2026-04-20 01:57 25.79933 -80.01368 4306 ft 221 kts 262°
2026-04-20 01:57 25.79782 -80.03005 4266 ft 211 kts 266°
2026-04-20 01:58 25.79726 -80.04660 4005 ft 215 kts 268°
2026-04-20 01:58 25.79676 -80.06315 3727 ft 215 kts 267°
2026-04-20 01:58 25.79611 -80.07968 3449 ft 214 kts 266°
2026-04-20 01:58 25.79538 -80.09603 3161 ft 210 kts 267°
2026-04-20 01:59 25.79466 -80.11194 2897 ft 204 kts 266°
2026-04-20 01:59 25.79402 -80.12737 2621 ft 195 kts 266°
2026-04-20 01:59 25.79342 -80.14179 2369 ft 180 kts 266°
2026-04-20 01:59 25.79285 -80.15517 2129 ft 167 kts 266°
2026-04-20 02:00 25.79234 -80.16748 1965 ft 164 kts 266°
2026-04-20 02:00 25.79178 -80.18012 1721 ft 161 kts 266°
2026-04-20 02:00 25.79127 -80.19237 1502 ft 157 kts 267°
2026-04-20 02:00 25.79078 -80.20423 1304 ft 150 kts 266°
2026-04-20 02:01 25.79031 -80.21565 1078 ft 146 kts 267°
2026-04-20 02:01 25.78980 -80.22670 895 ft 143 kts 266°
2026-04-20 02:01 25.78926 -80.23778 757 ft 145 kts 266°
2026-04-20 02:01 25.78876 -80.24899 574 ft 146 kts 268°
2026-04-20 02:02 25.78840 -80.26018 355 ft 144 kts 266°
2026-04-20 02:02 25.78796 -80.27122 144 ft 143 kts 268°
2026-04-20 02:02 25.78754 -80.28193 20 ft 133 kts 267°
2026-04-20 02:02 25.78718 -80.29033 16 ft 79 kts 268°
2026-04-20 02:03 25.78702 -80.29464 15 ft 39 kts 266°
2026-04-20 02:03 25.78696 -80.29655 17 ft 17 kts 273°
2026-04-20 02:03 25.78717 -80.29773 18 ft 10 kts 296°
2026-04-20 02:03 25.78739 -80.29797 18 ft 7 kts 328°
2026-04-20 02:04 25.78783 -80.29786 18 ft 7 kts 60°
2026-04-20 02:04 25.78797 -80.29732 18 ft 7 kts 81°
2026-04-20 02:04 25.78798 -80.29678 18 ft 7 kts 91°
2026-04-20 02:04 25.78799 -80.29624 18 ft 7 kts 88°
2026-04-20 02:05 25.78802 -80.29571 18 ft 7 kts 87°
2026-04-20 02:05 25.78805 -80.29504 18 ft 9 kts 87°
2026-04-20 02:05 25.78808 -80.29433 18 ft 9 kts 87°
2026-04-20 02:05 25.78812 -80.29364 17 ft 9 kts 87°
2026-04-20 02:06 25.78815 -80.29295 16 ft 9 kts 87°
2026-04-20 02:06 25.78817 -80.29225 15 ft 9 kts 88°
2026-04-20 02:06 25.78819 -80.29157 15 ft 9 kts 88°
2026-04-20 02:06 25.78822 -80.29091 15 ft 8 kts 88°
2026-04-20 02:07 25.78830 -80.29009 16 ft 14 kts 80°
2026-04-20 02:07 25.78854 -80.28905 15 ft 14 kts 71°
2026-04-20 02:07 25.78931 -80.28870 14 ft 13 kts 358°
2026-04-20 02:07 25.79021 -80.28874 13 ft 13 kts 358°
2026-04-20 02:08 25.79108 -80.28878 11 ft 12 kts 357°
2026-04-20 02:08 25.79192 -80.28882 11 ft 12 kts 360°
2026-04-20 02:08 25.79277 -80.28881 12 ft 12 kts 358°
2026-04-20 02:08 25.79356 -80.28885 14 ft 11 kts 357°
2026-04-20 02:09 25.79435 -80.28888 15 ft 11 kts 357°
2026-04-20 02:09 25.79511 -80.28892 16 ft 11 kts 357°
2026-04-20 02:09 25.79586 -80.28896 17 ft 11 kts 357°
2026-04-20 02:09 25.79658 -80.28900 19 ft 10 kts 357°
2026-04-20 02:10 25.79728 -80.28904 20 ft 10 kts 357°
2026-04-20 02:10 25.79796 -80.28908 21 ft 10 kts 357°
2026-04-20 02:10 25.79862 -80.28912 21 ft 9 kts 357°
2026-04-20 02:10 25.79921 -80.28896 21 ft 9 kts 56°
2026-04-20 02:11 25.79932 -80.28827 21 ft 9 kts 88°
2026-04-20 02:11 25.79936 -80.28748 21 ft 11 kts 86°
2026-04-20 02:11 25.79940 -80.28650 20 ft 14 kts 88°
2026-04-20 02:11 25.79944 -80.28544 17 ft 13 kts 88°
2026-04-20 02:12 25.79938 -80.28445 15 ft 13 kts 122°
2026-04-20 02:12 25.79886 -80.28382 15 ft 9 kts 93°
2026-04-20 02:12 25.79876 -80.28324 14 ft 7 kts 144°
2026-04-20 02:12 25.79839 -80.28318 14 ft 2 kts 178°
2026-04-20 02:13 25.79834 -80.28318 14 ft 1 kts 178°
2026-04-20 02:13 25.79828 -80.28317 14 ft 1 kts 178°
2026-04-20 02:13 25.79823 -80.28317 14 ft 1 kts 178°
2026-04-20 02:13 25.79822 -80.28317 14 ft 0 kts 178°